Wappingers Falls, NY

8:03 PM EDT on August 25, 2016 (GMT -0400)
Dutchess County

Weather History for KPOU - June, 2013

Change the Weather History Date:

Wednesday, June 19, 2013

  Actual Average Record
Temperature  
Mean Temperature 64 °F 69 °F  
Max Temperature 75 °F 81 °F 92 °F (2016)
Min Temperature 53 °F 57 °F 40 °F (1956)
Degree Days  
Heating Degree Days 1 1  
Month to date heating degree days 30 41  
Since 1 June heating degree days 30 41  
Since 1 July heating degree days 5713 6203  
Cooling Degree Days 0 5  
Month to date cooling degree days 45 64  
Year to date cooling degree days 98 100  
Since 1 June cooling degree days 45 64  
Growing Degree Days 14 (Base 50)    
Moisture  
Dew Point 49 °F    
Average Humidity 64    
Maximum Humidity 93    
Minimum Humidity 35    
Precipitation  
Precipitation 0.00 in 0.14 in 1.22 in (1972)
Month to date precipitation 6.50 2.98  
Year to date precipitation 17.15 20.48  
Sea Level Pressure  
Sea Level Pressure 30.03 in    
Wind  
Wind Speed 5 mph (NNE)    
Max Wind Speed 13 mph    
Max Gust Speed 18 mph    
Visibility 10 miles    
Events      
T = Trace of Precipitation, MM = Missing Value Source: NWS Daily Summary

Daily Weather History Graph

Daily Weather History Graph

Search for Another Location

Airport or City:

Trip Planner

Search our weather history database for the weather conditions in past years. The results will help you decide how hot, cold, wet, or windy it might be!

Date:

Astronomy

Jun. 19, 2013 Rise Set
Actual Time 5:21 AM EDT 8:32 PM EDT
Civil Twilight 4:46 AM EDT 9:07 PM EDT
Nautical Twilight 4:02 AM EDT 9:51 PM EDT
Astronomical Twilight 3:10 AM EDT 10:43 PM EDT
Moon 4:20 PM EDT (6/19) 2:06 AM EDT (6/19)
Length of Visible Light 16h 20m
Length of Day
15h 11m
Waxing Gibbous, 80% of the Moon is Illuminated
Jun 19
Waxing Gibbous
Jun 23
Full
Jun 30
Last Quarter
Jul 8
New
Jul 15
First Quarter

Hourly Weather History & Observations

Time (EDT) Temp. Dew Point Humidity Pressure Visibility Wind Dir Wind Speed Gust Speed Precip Events Conditions
12:53 AM 60.1 °F 53.1 °F 78% 29.91 in 10.0 mi NNE 4.6 mph - N/A   Mostly Cloudy
1:53 AM 59.0 °F 53.1 °F 81% 29.91 in 10.0 mi Calm Calm - N/A   Overcast
2:53 AM 57.9 °F 53.1 °F 84% 29.93 in 10.0 mi North 3.5 mph - N/A   Partly Cloudy
3:53 AM 57.0 °F 52.0 °F 83% 29.93 in 10.0 mi North 4.6 mph - N/A   Clear
4:53 AM 55.9 °F 51.1 °F 84% 29.94 in 10.0 mi North 4.6 mph - N/A   Clear
5:53 AM 55.0 °F 51.1 °F 86% 29.96 in 10.0 mi Calm Calm - N/A   Clear
6:53 AM 57.0 °F 50.0 °F 77% 29.99 in 10.0 mi North 6.9 mph - N/A   Clear
7:53 AM 59.0 °F 48.9 °F 69% 30.01 in 10.0 mi North 8.1 mph - N/A   Clear
8:53 AM 62.1 °F 48.0 °F 60% 30.03 in 10.0 mi North 6.9 mph - N/A   Clear
9:53 AM 64.9 °F 48.9 °F 56% 30.04 in - NNW 10.4 mph - N/A   Clear
10:53 AM 66.9 °F 50.0 °F 54% 30.05 in - NW 6.9 mph - N/A   Clear
11:53 AM - - N/A% 30.06 in 10.0 mi NE 11.5 mph - N/A   Clear
12:53 PM 71.1 °F 45.0 °F 39% 30.05 in 10.0 mi NNW 9.2 mph - N/A   Clear
1:53 PM 73.0 °F 46.0 °F 38% 30.05 in 10.0 mi North 9.2 mph - N/A   Clear
2:53 PM 73.0 °F 45.0 °F 37% 30.05 in 10.0 mi Variable 3.5 mph - N/A   Clear
3:53 PM 73.9 °F 46.0 °F 37% 30.05 in 10.0 mi ENE 5.8 mph - N/A   Clear
4:53 PM 73.9 °F 46.0 °F 37% 30.04 in 10.0 mi Variable 3.5 mph - N/A   Clear
5:53 PM 73.9 °F 46.0 °F 37% 30.04 in 10.0 mi NE 4.6 mph - N/A   Clear
6:53 PM 73.0 °F 46.9 °F 39% 30.05 in 10.0 mi NNE 3.5 mph - N/A   Clear
7:53 PM 70.0 °F 48.0 °F 46% 30.07 in 10.0 mi ENE 4.6 mph - N/A   Clear
8:53 PM 62.1 °F 53.1 °F 72% 30.09 in 10.0 mi NNE 3.5 mph - N/A   Clear
9:53 PM 61.0 °F 52.0 °F 72% 30.12 in 10.0 mi Calm Calm - N/A   Clear
10:53 PM 57.0 °F 51.1 °F 81% 30.14 in 10.0 mi Calm Calm - N/A   Clear
11:53 PM 54.0 °F 52.0 °F 93% 30.17 in 10.0 mi Calm Calm - N/A   Clear